Simultaneous Nadir Overpasses (SNOs) Predictions

Prediction of SNOs between LANDSAT-8 and NPP Satellite Orbit:

Table of predicted SNOs for the next 14.0 days since TLE Epoch: 5/2/2015
Index Date (LANDSAT-8) Time (LANDSAT-8) Lat,Lon (LANDSAT-8) SZA (LANDSAT-8 ) Date (NPP) Time (NPP) Lat,Lon (NPP) SZA (NPP ) Distance(km) Time Diff (sec)
1 05/03/2015 19:06:41 -70.72, 70.31 125.12 05/03/2015 19:05:52 -70.69, 70.34 125.14 3.18 49
2 05/03/2015 19:56:08 70.62,-122.20 54.77 05/03/2015 19:56:37 70.62,-122.24 54.78 1.41 29
3 05/06/2015 10:33:26 71.38, 19.59 54.78 05/06/2015 10:32:18 71.47, 17.46 54.91 76.19 68
4 05/06/2015 11:23:07 -70.67,-173.89 125.94 05/06/2015 11:22:46 -70.66,-173.84 125.95 1.91 21
5 05/06/2015 12:12:34 70.56, -6.40 53.95 05/06/2015 12:13:31 70.59, -6.42 53.97 2.76 57
6 05/09/2015 02:50:04 70.72, 134.44 53.38 05/09/2015 02:48:59 70.71, 134.51 53.38 2.88 65
7 05/09/2015 03:39:34 -70.60, -58.10 126.74 05/09/2015 03:39:41 -70.63, -58.03 126.72 3.48 7
8 05/09/2015 04:29:08 70.11, 108.83 52.77 05/09/2015 04:30:17 70.08, 110.13 52.72 49.16 69
9 05/11/2015 19:06:30 70.69,-109.71 52.66 05/11/2015 19:05:54 70.69,-109.69 52.66 1.27 36
10 05/11/2015 19:56:00 -70.58, 57.76 127.46 05/11/2015 19:56:36 -70.60, 57.77 127.44 1.94 36
11 05/14/2015 10:33:23 -71.10,-160.85 127.60 05/14/2015 10:32:12 -71.15,-162.00 127.53 41.87 71
12 05/14/2015 11:22:56 70.66, 6.12 51.96 05/14/2015 11:22:49 70.67, 6.10 51.97 0.90 7
13 05/14/2015 12:12:26 -70.55, 173.59
